| time (UTC) | temp C | wind direction | speed KPH | gust KPH | rain 1hr cm | rain 24hr cm | rain mn cm | humidity % | barometer mb |
| 20260507081046 | 5 | 36 | 0.0 | 0.0 | 0.00 | 0.03 | 0.00 | 94 | 1021.0 |
| 20260507075046 | 5 | 36 | 0.0 | 0.0 | 0.00 | 0.03 | 0.00 | 93 | 1021.0 |
| 20260507074045 | 5 | 36 | 0.0 | 0.0 | 0.00 | 0.03 | 0.00 | 93 | 1020.7 |
| 20260507073054 | 5 | 36 | 0.0 | 0.0 | 0.00 | 0.03 | 0.00 | 93 | 1020.9 |
| 20260507072045 | 5 | 36 | 0.0 | 0.0 | 0.00 | 0.03 | 0.00 | 92 | 1021.0 |
| 20260507071034 | 5 | 36 | 0.0 | 0.0 | 0.00 | 0.03 | 0.00 | 92 | 1021.1 |
| 20260507070051 | 5 | 36 | 0.0 | 0.0 | 0.00 | 0.03 | 0.00 | 91 | 1021.1 |
| 20260507065054 | 5 | 36 | 0.0 | 0.0 | 0.00 | 0.03 | 0.00 | 91 | 1021.2 |
| 20260507064042 | 6 | 36 | 0.0 | 0.0 | 0.00 | 0.03 | 0.00 | 90 | 1021.2 |
| 20260507063046 | 6 | 36 | 0.0 | 0.0 | 0.00 | 0.03 | 0.00 | 90 | 1021.3 |
| 20260507062115 | 6 | 36 | 0.0 | 0.0 | 0.00 | 0.03 | 0.00 | 90 | 1021.4 |
| 20260507061043 | 6 | 36 | 0.0 | 0.0 | 0.00 | 0.03 | 0.00 | 89 | 1021.4 |
| 20260507060032 | 6 | 36 | 0.0 | 0.0 | 0.00 | 0.03 | 0.00 | 89 | 1021.3 |
| 20260507055056 | 6 | 36 | 0.0 | 0.0 | 0.00 | 0.03 | 0.00 | 88 | 1021.4 |
| 20260507054032 | 6 | 36 | 0.0 | 0.0 | 0.00 | 0.03 | 0.00 | 88 | 1021.2 |
| 20260507053035 | 6 | 36 | 0.0 | 0.0 | 0.00 | 0.03 | 0.00 | 87 | 1021.3 |
| 20260507052110 | 6 | 36 | 0.0 | 0.0 | 0.00 | 0.03 | 0.00 | 87 | 1021.2 |
| 20260507051029 | 6 | 36 | 0.0 | 0.0 | 0.00 | 0.03 | 0.00 | 87 | 1021.2 |
| 20260507050113 | 7 | 36 | 0.0 | 0.0 | 0.00 | 0.03 | 0.03 | 86 | 1021.3 |
| 20260507045047 | 7 | 36 | 0.0 | 0.0 | 0.00 | 0.03 | 0.03 | 85 | 1021.3 |
| 20260507044028 | 7 | 36 | 0.0 | 0.0 | 0.00 | 0.03 | 0.03 | 84 | 1021.2 |
| 20260507043041 | 7 | 36 | 0.0 | 0.0 | 0.00 | 0.03 | 0.03 | 83 | 1021.1 |
| 20260507042053 | 7 | 36 | 0.0 | 0.0 | 0.00 | 0.03 | 0.03 | 82 | 1021.2 |
| 20260507041029 | 7 | 36 | 0.0 | 0.0 | 0.00 | 0.03 | 0.03 | 81 | 1021.2 |
| 20260507040038 | 7 | 36 | 0.0 | 0.0 | 0.00 | 0.03 | 0.03 | 79 | 1021.1 |
| 20260507035044 | 8 | 36 | 0.0 | 0.0 | 0.00 | 0.03 | 0.03 | 79 | 1021.0 |
| 20260507034050 | 8 | 36 | 0.0 | 0.0 | 0.00 | 0.03 | 0.03 | 77 | 1020.9 |
| 20260507033040 | 8 | 36 | 0.0 | 0.0 | 0.00 | 0.03 | 0.03 | 76 | 1020.9 |
| 20260507032049 | 8 | 36 | 0.0 | 0.0 | 0.00 | 0.03 | 0.03 | 75 | 1020.9 |
| 20260507031032 | 8 | 36 | 0.0 | 0.0 | 0.00 | 0.03 | 0.03 | 74 | 1020.7 |
| 20260507030029 | 9 | 36 | 0.0 | 0.0 | 0.00 | 0.03 | 0.03 | 73 | 1020.7 |
| 20260507025038 | 9 | 36 | 0.0 | 0.0 | 0.00 | 0.03 | 0.03 | 73 | 1020.7 |
| 20260507024100 | 9 | 36 | 0.0 | 0.0 | 0.00 | 0.03 | 0.03 | 72 | 1020.7 |
| 20260507023027 | 10 | 36 | 0.0 | 0.0 | 0.00 | 0.03 | 0.03 | 70 | 1020.6 |
| 20260507022033 | 10 | 36 | 0.0 | 0.0 | 0.00 | 0.03 | 0.03 | 68 | 1020.5 |
| 20260507021038 | 10 | 36 | 0.0 | 0.0 | 0.00 | 0.03 | 0.03 | 69 | 1020.3 |
| 20260507020042 | 10 | 36 | 0.0 | 0.0 | 0.00 | 0.15 | 0.03 | 69 | 1020.2 |
| 20260507015039 | 11 | 36 | 0.0 | 1.6 | 0.00 | 0.15 | 0.03 | 67 | 1020.2 |
| 20260507014055 | 11 | 36 | 0.0 | 0.0 | 0.00 | 0.15 | 0.03 | 62 | 1019.9 |
| 20260507013024 | 12 | 36 | 0.0 | 0.0 | 0.00 | 0.15 | 0.03 | 58 | 1019.8 |
| 20260507012046 | 12 | 36 | 0.0 | 0.0 | 0.00 | 0.15 | 0.03 | 57 | 1019.6 |
| 20260507010046 | 13 | 36 | 0.0 | 3.2 | 0.00 | 0.18 | 0.03 | 51 | 1019.5 |
| 20260507005027 | 13 | 319 | 0.0 | 1.6 | 0.00 | 0.18 | 0.03 | 50 | 1019.5 |
| 20260507004110 | 14 | 319 | 0.0 | 8.0 | 0.00 | 0.18 | 0.03 | 48 | 1019.5 |
| 20260507003038 | 14 | 312 | 1.6 | 3.2 | 0.00 | 0.18 | 0.03 | 50 | 1019.4 |
| 20260507002050 | 14 | 337 | 1.6 | 12.9 | 0.00 | 0.18 | 0.03 | 48 | 1019.4 |
| 20260507001033 | 15 | 337 | 1.6 | 6.4 | 0.00 | 0.18 | 0.03 | 45 | 1019.3 |
| 20260507000107 | 15 | 56 | 1.6 | 14.5 | 0.00 | 0.18 | 0.03 | 49 | 1019.2 |
| 20260506235052 | 15 | 345 | 1.6 | 9.7 | 0.00 | 0.18 | 0.03 | 48 | 1018.9 |
| 20260506234039 | 15 | 313 | 1.6 | 4.8 | 0.00 | 0.18 | 0.03 | 49 | 1018.8 |
| 20260506233031 | 15 | 68 | 1.6 | 14.5 | 0.00 | 0.18 | 0.03 | 49 | 1018.6 |
| 20260506232048 | 15 | 346 | 1.6 | 12.9 | 0.00 | 0.18 | 0.03 | 44 | 1018.5 |
| 20260506231032 | 15 | 16 | 3.2 | 9.7 | 0.00 | 0.18 | 0.03 | 46 | 1018.6 |
| 20260506230039 | 16 | 40 | 1.6 | 8.0 | 0.00 | 0.20 | 0.03 | 47 | 1018.6 |
| 20260506225039 | 16 | 310 | 1.6 | 9.7 | 0.00 | 0.20 | 0.03 | 45 | 1018.3 |
| 20260506224033 | 16 | 34 | 1.6 | 14.5 | 0.00 | 0.20 | 0.03 | 45 | 1018.6 |
| 20260506223112 | 16 | 51 | 3.2 | 9.7 | 0.00 | 0.20 | 0.03 | 48 | 1018.6 |
| 20260506222048 | 16 | 85 | 3.2 | 14.5 | 0.00 | 0.20 | 0.03 | 43 | 1018.5 |
| 20260506221051 | 16 | 342 | 3.2 | 14.5 | 0.00 | 0.20 | 0.03 | 46 | 1018.5 |
| 20260506220049 | 16 | 47 | 1.6 | 11.3 | 0.00 | 0.20 | 0.03 | 47 | 1018.6 |
| 20260506215035 | 16 | 305 | 3.2 | 8.0 | 0.00 | 0.20 | 0.03 | 46 | 1018.5 |
| 20260506214047 | 16 | 336 | 1.6 | 8.0 | 0.00 | 0.20 | 0.03 | 45 | 1018.8 |
| 20260506213058 | 16 | 26 | 1.6 | 11.3 | 0.00 | 0.20 | 0.03 | 47 | 1018.7 |
| 20260506212048 | 16 | 1 | 1.6 | 14.5 | 0.00 | 0.20 | 0.03 | 47 | 1018.6 |
| 20260506211030 | 17 | 46 | 1.6 | 9.7 | 0.00 | 0.20 | 0.03 | 46 | 1018.6 |
| 20260506210039 | 16 | 31 | 3.2 | 16.1 | 0.00 | 0.20 | 0.03 | 48 | 1018.8 |
| 20260506205042 | 17 | 40 | 4.8 | 9.7 | 0.00 | 0.20 | 0.03 | 47 | 1018.8 |
| 20260506204053 | 17 | 113 | 4.8 | 11.3 | 0.00 | 0.20 | 0.03 | 43 | 1019.1 |
| 20260506203050 | 17 | 108 | 1.6 | 12.9 | 0.00 | 0.20 | 0.03 | 42 | 1019.3 |
| 20260506202030 | 17 | 15 | 3.2 | 11.3 | 0.00 | 0.20 | 0.03 | 48 | 1019.4 |
| 20260506201031 | 17 | 306 | 1.6 | 8.0 | 0.00 | 0.20 | 0.03 | 49 | 1019.3 |
| 20260506200049 | 17 | 360 | 3.2 | 17.7 | 0.00 | 0.20 | 0.03 | 46 | 1019.4 |
| 20260506195026 | 16 | 10 | 1.6 | 14.5 | 0.00 | 0.20 | 0.03 | 45 | 1019.4 |
| 20260506194052 | 16 | 73 | 3.2 | 12.9 | 0.00 | 0.20 | 0.03 | 47 | 1019.5 |
| 20260506193035 | 16 | 13 | 3.2 | 9.7 | 0.00 | 0.20 | 0.03 | 45 | 1019.6 |
| 20260506192039 | 16 | 61 | 3.2 | 14.5 | 0.00 | 0.20 | 0.03 | 47 | 1019.9 |
| 20260506191053 | 16 | 49 | 3.2 | 11.3 | 0.00 | 0.20 | 0.03 | 45 | 1020.2 |
| 20260506190058 | 16 | 330 | 3.2 | 11.3 | 0.00 | 0.20 | 0.03 | 49 | 1020.0 |
| 20260506185037 | 16 | 170 | 3.2 | 9.7 | 0.00 | 0.20 | 0.03 | 50 | 1020.1 |
| 20260506184032 | 16 | 38 | 1.6 | 9.7 | 0.00 | 0.20 | 0.03 | 50 | 1020.2 |
| 20260506183045 | 16 | 111 | 4.8 | 11.3 | 0.00 | 0.20 | 0.03 | 43 | 1020.3 |
| 20260506182054 | 16 | 67 | 1.6 | 12.9 | 0.00 | 0.20 | 0.03 | 47 | 1020.5 |
| 20260506181046 | 16 | 302 | 1.6 | 12.9 | 0.00 | 0.20 | 0.03 | 49 | 1020.8 |
| 20260506180041 | 15 | 303 | 4.8 | 12.9 | 0.00 | 0.20 | 0.03 | 46 | 1020.9 |
| 20260506175030 | 15 | 105 | 4.8 | 11.3 | 0.00 | 0.20 | 0.03 | 49 | 1021.1 |
| 20260506174044 | 15 | 334 | 1.6 | 9.7 | 0.00 | 0.20 | 0.03 | 56 | 1021.2 |
| 20260506173049 | 14 | 319 | 4.8 | 12.9 | 0.00 | 0.20 | 0.03 | 57 | 1021.1 |
| 20260506172053 | 14 | 34 | 1.6 | 11.3 | 0.00 | 0.20 | 0.03 | 51 | 1021.1 |
| 20260506171028 | 14 | 57 | 1.6 | 4.8 | 0.00 | 0.20 | 0.03 | 53 | 1021.1 |
| 20260506170049 | 13 | 347 | 0.0 | 8.0 | 0.00 | 0.20 | 0.03 | 59 | 1021.3 |
| 20260506165032 | 13 | 82 | 1.6 | 4.8 | 0.00 | 0.20 | 0.03 | 54 | 1021.2 |
| 20260506164029 | 13 | 33 | 1.6 | 6.4 | 0.00 | 0.20 | 0.03 | 61 | 1021.2 |
| 20260506163028 | 13 | 55 | 1.6 | 9.7 | 0.00 | 0.20 | 0.03 | 59 | 1020.7 |
| 20260506162028 | 13 | 47 | 3.2 | 9.7 | 0.00 | 0.20 | 0.03 | 55 | 1020.4 |
| 20260506161055 | 13 | 5 | 1.6 | 12.9 | 0.00 | 0.20 | 0.03 | 57 | 1020.3 |
| 20260506160056 | 13 | 23 | 3.2 | 17.7 | 0.00 | 0.20 | 0.03 | 56 | 1020.0 |
| 20260506155027 | 13 | 325 | 3.2 | 17.7 | 0.00 | 0.20 | 0.03 | 55 | 1019.9 |
| 20260506154052 | 13 | 20 | 1.6 | 14.5 | 0.03 | 0.20 | 0.03 | 59 | 1019.8 |
| 20260506153047 | 13 | 356 | 4.8 | 16.1 | 0.03 | 0.20 | 0.03 | 60 | 1020.1 |
| 20260506152044 | 12 | 67 | 1.6 | 9.7 | 0.03 | 0.20 | 0.03 | 66 | 1020.1 |
| 20260506151035 | 12 | 16 | 1.6 | 14.5 | 0.03 | 0.20 | 0.03 | 70 | 1019.8 |
| 20260506150046 | 12 | 87 | 1.6 | 11.3 | 0.03 | 0.20 | 0.03 | 69 | 1020.1 |
| 20260506145053 | 11 | 103 | 4.8 | 12.9 | 0.03 | 0.20 | 0.03 | 69 | 1019.9 |
| 20260506144034 | 10 | 47 | 1.6 | 8.0 | 0.00 | 0.18 | 0.00 | 75 | 1019.7 |
| 20260506143037 | 10 | 88 | 4.8 | 11.3 | 0.00 | 0.18 | 0.00 | 76 | 1019.6 |
| 20260506142037 | 9 | 246 | 1.6 | 8.0 | 0.00 | 0.18 | 0.00 | 76 | 1019.5 |
| 20260506141038 | 9 | 81 | 1.6 | 9.7 | 0.00 | 0.18 | 0.00 | 78 | 1019.9 |
| 20260506140037 | 8 | 61 | 0.0 | 9.7 | 0.00 | 0.18 | 0.00 | 80 | 1020.1 |
| 20260506135039 | 8 | 53 | 1.6 | 12.9 | 0.00 | 0.18 | 0.00 | 79 | 1020.0 |
| 20260506134025 | 8 | 355 | 1.6 | 8.0 | 0.00 | 0.18 | 0.00 | 81 | 1020.1 |
| 20260506133111 | 8 | 55 | 0.0 | 6.4 | 0.00 | 0.18 | 0.00 | 82 | 1020.0 |
| 20260506132028 | 8 | 9 | 1.6 | 8.0 | 0.00 | 0.18 | 0.00 | 83 | 1019.8 |
| 20260506131037 | 8 | 61 | 1.6 | 4.8 | 0.00 | 0.18 | 0.00 | 85 | 1019.9 |
| 20260506130025 | 8 | 47 | 3.2 | 8.0 | 0.00 | 0.18 | 0.00 | 86 | 1019.8 |
| 20260506125114 | 8 | 40 | 0.0 | 9.7 | 0.00 | 0.18 | 0.00 | 88 | 1019.7 |
| 20260506124043 | 7 | 53 | 0.0 | 6.4 | 0.00 | 0.18 | 0.00 | 89 | 1019.7 |
| 20260506123040 | 7 | 34 | 1.6 | 8.0 | 0.00 | 0.18 | 0.00 | 92 | 1019.6 |
| 20260506122037 | 8 | 17 | 0.0 | 3.2 | 0.00 | 0.18 | 0.00 | 93 | 1019.8 |
| 20260506121046 | 8 | 47 | 0.0 | 8.0 | 0.00 | 0.18 | 0.00 | 94 | 1019.8 |
| 20260506120045 | 7 | 85 | 0.0 | 6.4 | 0.00 | 0.18 | 0.00 | 95 | 1019.9 |
| 20260506115048 | 7 | 26 | 0.0 | 3.2 | 0.00 | 0.18 | 0.00 | 95 | 1019.8 |
| 20260506114048 | 7 | 18 | 0.0 | 3.2 | 0.00 | 0.18 | 0.00 | 95 | 1019.6 |
| 20260506113057 | 7 | 50 | 0.0 | 3.2 | 0.00 | 0.18 | 0.00 | 95 | 1019.3 |
| 20260506112033 | 7 | 52 | 0.0 | 1.6 | 0.00 | 0.18 | 0.00 | 95 | 1019.3 |
| 20260506111032 | 7 | 51 | 0.0 | 3.2 | 0.00 | 0.18 | 0.00 | 96 | 1019.3 |
| 20260506110053 | 7 | 323 | 1.6 | 6.4 | 0.00 | 0.30 | 0.00 | 95 | 1019.2 |
| 20260506105058 | 7 | 355 | 1.6 | 6.4 | 0.00 | 0.30 | 0.00 | 95 | 1018.9 |
| 20260506104023 | 7 | 30 | 0.0 | 6.4 | 0.00 | 0.30 | 0.00 | 95 | 1018.6 |
| 20260506103120 | 7 | 1 | 1.6 | 8.0 | 0.00 | 0.30 | 0.00 | 95 | 1018.3 |
| 20260506102045 | 7 | 346 | 0.0 | 3.2 | 0.00 | 0.30 | 0.00 | 95 | 1018.1 |
| 20260506101036 | 7 | 298 | 0.0 | 3.2 | 0.00 | 0.30 | 0.00 | 95 | 1018.3 |
| 20260506100054 | 7 | 37 | 0.0 | 3.2 | 0.00 | 0.66 | 0.00 | 95 | 1017.9 |
| 20260506095029 | 7 | 344 | 0.0 | 3.2 | 0.00 | 0.66 | 0.00 | 94 | 1017.6 |
| 20260506094058 | 7 | 322 | 1.6 | 6.4 | 0.00 | 0.66 | 0.00 | 94 | 1017.5 |
| 20260506093028 | 8 | 119 | 0.0 | 1.6 | 0.00 | 0.66 | 0.00 | 93 | 1017.5 |
| 20260506092034 | 8 | 119 | 0.0 | 1.6 | 0.00 | 0.66 | 0.00 | 93 | 1017.6 |
| 20260506091049 | 8 | 99 | 0.0 | 1.6 | 0.00 | 0.66 | 0.00 | 93 | 1017.5 |
| 20260506090048 | 8 | 94 | 0.0 | 1.6 | 0.00 | 1.09 | 0.00 | 92 | 1017.3 |
| 20260506085051 | 8 | 94 | 0.0 | 0.0 | 0.00 | 1.09 | 0.00 | 91 | 1016.8 |
| 20260506084030 | 8 | 94 | 0.0 | 1.6 | 0.00 | 1.09 | 0.00 | 90 | 1016.2 |
| 20260506083023 | 8 | 94 | 1.6 | 3.2 | 0.00 | 1.09 | 0.00 | 90 | 1016.1 |
| 20260506082044 | 8 | 357 | 0.0 | 3.2 | 0.00 | 1.09 | 0.00 | 89 | 1016.3 |